Regional Weather Roundup
Issued by NWS

Home | Current Version | Previous Version | Graphics & Text | Print | Product List | Glossary On
Versions: 1 2 3 4 5 6 7 8 9 10 11 12 13 14 15 16 17 18 19 20 21 22 23 24 25 26 27 28 29 30 31 32 33 34 35 36 37 38 39 40 41 42 43 44 45 46 47 48 49
000
ASUS45 KBOU 012007
RWRCO

WEATHER ROUNDUP FOR COLORADO
NATIONAL WEATHER SERVICE DENVER/BOULDER CO
100 PM MST SUN MAR 01 2015

NOTE: "FAIR" INDICATES FEW OR NO CLOUDS BELOW 12000 FEET WITH NO
SIGNIFICANT WEATHER AND/OR OBSTRUCTIONS TO VISIBILITY.

COZ001>005-013-030-031-012100-
...NORTHWEST COLORADO...

CITY           SKY/WX    TMP DP  RH WIND       PRES   REMARKS
CRAIG          PTSUNNY   30  20  66 CALM      30.12F
HAYDEN         CLOUDY    27  19  74 CALM      30.10F
MEEKER         CLOUDY    30  24  78 CALM      30.09F
MOUNT WERNER   NOT AVBL
STEAMBOAT SPGS CLOUDY    29  20  70 CALM      30.09F
WALDEN         PTSUNNY   23  16  74 CALM      30.05F
$$

COZ006>008-011-012100-
...WEST CENTRAL VALLEYS...

CITY           SKY/WX    TMP DP  RH WIND       PRES   REMARKS
GRAND JUNCTION CLOUDY    44  31  60 CALM      30.08F
MONTROSE       CLOUDY    41  27  57 E9        30.09F
EAGLE          CLOUDY    43  21  42 SW15G22   30.08F
RIFLE          CLOUDY    43  24  47 VRB3      30.08F
DELTA          CLOUDY    47  30  51 CALM      30.09F
NUCLA          CLOUDY    37  30  75 W3        30.11F
$$

COZ017>023-064>068-012100-
...SOUTHWEST COLORADO...

CITY           SKY/WX    TMP DP  RH WIND       PRES   REMARKS
DURANGO        CLOUDY    36  32  85 SE5       30.09F
CORTEZ         LGT RAIN  37  35  92 W3        30.08F
PAGOSA SPRINGS CLOUDY    36  32  86 NE3       30.11F FOG
TELLURIDE      CLOUDY    34  26  71 CALM      30.08F
WOLF CREEK PAS SNOW      21  21 100 SW18G29   30.13F VSB<1/4 WCI   6
$$

COZ009-010-012-014-032>034-037-058>063-012100-
...CENTRAL COLORADO...

CITY           SKY/WX    TMP DP  RH WIND       PRES   REMARKS
ASPEN          CLOUDY    35  21  56 SE8       30.06F WCI  29
BUENA VISTA    CLOUDY    35  20  54 W7        30.07F WCI  30
COPPER MTN     LGT SNOW  23  14  68 SW12      30.07F WCI  12
BERTHOUD PASS  LGT SNOW  14   9  79 W13       30.06S WCI   0
COTTONWOOD PAS LGT SNOW  32  23  69 SE5       30.08F WCI  27
GUNNISON       PTSUNNY   34  25  69 E5        30.14F WCI  30
KREMMLING      CLOUDY    36  23  60 CALM      30.06F
LEADVILLE      LGT SNOW  24  17  74 N5        30.07R VSB 1   WCI  18
SALIDA         CLOUDY    41  24  51 S10G18    30.15F
SUNLIGHT       LGT SNOW  27  23  86 CALM        N/A  VSB 1
WILKERSON PASS CLOUDY    27  19  74 SW5       30.11F WCI  21
$$

COZ069>075-012100-
...SAN LUIS VALLEY/SANGRE DE CRISTO MOUNTAINS...

CITY           SKY/WX    TMP DP  RH WIND       PRES   REMARKS
ALAMOSA        CLOUDY    35  26  69 NW5       30.11F WCI  31
LA VETA PASS   CLOUDY    34  30  86 S15G29    30.10F WCI  24
SAGUACHE       PTSUNNY   34  27  75 S5        30.12F WCI  30
$$

COZ035-036-038>040-012100-
...NORTHERN COLORADO FRONT RANGE...

CITY           SKY/WX    TMP DP  RH WIND       PRES   REMARKS
DENVER INTL AP CLOUDY    24  15  68 NW5       30.22S WCI  18
DMNS CITY PARK   N/A     27  15  60 N3G10     30.23S
AURORA         PTSUNNY   26  15  62 N5        30.22S WCI  20
FRONT RANGE AP PTSUNNY   25  18  74 CALM      30.22F
ERIE MUNI ARPT CLOUDY    25  16  68 CALM      30.24S
BOULDER MUN AP LGT SNOW  27  18  69 CALM      30.22F
CENTENNIAL     PTSUNNY   23  14  68 NW3       30.19S
BROOMFIELD     CLOUDY    25  16  68 CALM      30.21F
FORT COLLINS   PTSUNNY   25  16  68 E3        30.26S
LONGMONT       LGT SNOW  32  18  57 E3        30.25F
$$

COZ041-046-047-076>085-087-088-012100-
...PIKES PEAK/PALMER DIVIDE AND SOUTHERN FOOTHILLS...

CITY           SKY/WX    TMP DP  RH WIND       PRES   REMARKS
COLO. SPRINGS  PTSUNNY   25  16  68 S6        30.18F FOG     WCI  18
A. F. ACADEMY  MOSUNNY   28  16  59 S9        30.14F WCI  19
ELLICOTT       NOT AVBL
FALCON         CLOUDY    28  16  59 CALM      30.16S
FORT CARSON    CLOUDY    25  16  68 S5        30.17F WCI  19
LIMON          MOSUNNY   24  15  68 N9        30.21F WCI  14
MONUMENT HILL  MOSUNNY   23  14  68 NE3       30.13F
TRINIDAD       CLOUDY    24  18  77 E6        30.17F WCI  17
$$

COZ042>045-048>051-090-091-012100-
...NORTHEAST COLORADO...

CITY           SKY/WX    TMP DP  RH WIND       PRES   REMARKS
GREELEY ARPT   CLOUDY    27  12  54 CALM      30.24F
AKRON          SUNNY     30  15  53 NE5       30.23S WCI  25
BURLINGTON     MOSUNNY   31  19  61 NE13      30.24F WCI  21
WRAY           SUNNY     37  13  37 N12       30.28S
STERLING       MOSUNNY   32  16  51 N8        30.25F WCI  25
HOLYOKE        NOT AVBL
FORT MORGAN    MOSUNNY   31  15  52 NE3       30.25F
$$

COZ086-089-092>099-012100-
...SOUTHEAST COLORADO...

CITY           SKY/WX    TMP DP  RH WIND       PRES   REMARKS
PUEBLO         CLOUDY    25  16  68 CALM      30.23F
LA JUNTA       CLOUDY    29  19  66 NE8       30.26S WCI  21
LAMAR          CLOUDY    29  19  66 E7        30.26S WCI  22
SPRINGFIELD      N/A     27  19  72 N9        30.24R WCI  18
$$



USA.gov is the U.S. government's official web portal to all federal, state and local government web resources and services.